Regional Weather Roundup
Issued by NWS Grand Forks, ND

Home | Current Version | Previous Version | Text Only | Print | Product List | Glossary Off
Versions: 1 2 3 4 5 6 7 8 9 10 11 12 13 14 15 16 17 18 19 20 21 22 23 24 25 26 27 28 29 30 31 32 33 34 35 36 37 38 39 40 41 42 43 44 45 46 47 48 49 50

000
ASUS43 KFGF 091510
RWRFGF
PRAIRIE TO PINES  WEATHER ROUNDUP
NATIONAL WEATHER SERVICE EASTERN NORTH DAKOTA/GRAND FORKS ND
900 AM CST FRI DEC 09 2016

 **SATELLITE DATA USED TO AUGMENT SKY COVER AT AUTOMATED STATIONS**
 *****  WEATHER ACROSS EASTERN NORTH DAKOTA  *****

CITY           SKY/WX    TMP DP  RH WIND       PRES   REMARKS
GRAND FORKS    CLOUDY     4  -2  76 NW6       30.57S WCI  -7
GRAND FRKS AFB CLOUDY     2  -5  73 NW6       30.57R WCI  -9
DEVILS LAKE    CLEAR    -10 -14  82 NW9       30.54R WCI -27
FARGO          CLOUDY     7  -1  70 NW10      30.57S WCI  -8
WAHPETON ARPT  CLOUDY     3  -4  72 W6        30.59R WCI  -8
$$

 ***** WEATHER ACROSS CENTRAL AND WESTERN NORTH DAKOTA  *****

CITY           SKY/WX    TMP DP  RH WIND       PRES   REMARKS
BISMARCK       CLOUDY   -10 -14  82 W7        30.57S WCI -25
MINOT          CLOUDY   -10 -15  78 W13       30.55R WCI -30
JAMESTOWN      CLEAR     -9 -13  83 NW9       30.55R WCI -26
MINOT AFB      CLOUDY   -15 -21  77 W8        30.55R WCI -33
GARRISON         N/A    -15 -19  82 N8        30.53S WCI -32
WILLISTON      CLOUDY   -14 -18  82 CALM      30.56F
DICKINSON      ICE FOG  -19 -21  90 CALM      30.43F VSB<1/4
HETTINGER      CLOUDY   -11 -15  82 CALM      30.43F
$$

 *****  OTHER AIRPORT OBSERVATIONS IN OUR AREA  *****

CITY           SKY/WX    TMP DP  RH WIND       PRES   REMARKS
WALHALLA         N/A     -4  -4 100 W6        30.58S WCI -16
GRAFTON AIRPOR CLOUDY     5   0  78 NW9       30.59S WCI  -9
VALLEY CITY AR FAIR      -8  -9  92 NW6       30.57R WCI -21
CANDO          CLOUDY   -11 -17  77 W7        30.56R WCI -26
CAVALIER APRT    N/A      0  -4  85 W13       30.58R WCI -18
GWINNER        PTSUNNY    0  -6  78 NW9       30.57R WCI -16
SHEYENNE NWR     N/A      2  -5  72 NW7       29.95S WCI -11
ROLLA          FAIR     -13 -18  77 NW7       30.49S WCI -29
 ***** THE ABOVE OBSERVATIONS ARE NON NWS ARE NOT QUALITY
       CONTROLLED AND MAY MIS-REPORT RAIN FOR SNOW...
$$

  *****  WEATHER ACROSS NORTHERN MINNESOTA  *****

CITY           SKY/WX    TMP DP  RH WIND       PRES   REMARKS
FLAG ISLAND    CLOUDY     1  -2  85 W10       30.50R WCI -14
WARROAD        LGT SNOW   1  -2  85 NW9       30.52S WCI -14
ROSEAU         CLOUDY     3  -2  78 NW8       30.53S WCI -10
HALLOCK        CLOUDY     3  -2  78 N8        30.57R WCI -10
THF RVR FALLS  FLURRIES   6   2  83 W6        30.53S WCI  -4
BAUDETTE       LGT SNOW   3  -4  72 NW10      30.49S WCI -12
WASKISH        CLOUDY     5   0  78 NW5       30.50S WCI  -4
CROOKSTON      CLOUDY     5   0  78 NW9       30.56S WCI  -9
GREENBUSH NDAW   N/A      1   0  92 N7          N/A  WCI -11
$$
  *****  WEATHER ACROSS CENTRAL AND WEST MINNESOTA  *****

CITY           SKY/WX    TMP DP  RH WIND       PRES   REMARKS
FOSSTON        LGT SNOW   3   1  92 S3        30.51S
BEMIDJI        FLURRIES   4   0  83 W5        30.49S WCI  -5
PARK RAPIDS    CLOUDY     7   0  73 W5        30.49R WCI  -2
ELBOW LAKE     LGT SNOW   2  -1  85 NW7       30.56R WCI -10
WADENA         FLURRIES   7   3  85 CALM      30.50S
DETROIT LAKES  LGT SNOW   9   3  78 W6        30.51S WCI  -1
MOORHEAD       MIX PCPN   7   1  78 NW7       30.57S WCI  -5
FERGUS FALLS   CLOUDY     3   0  85 W5        30.60S FOG     WCI  -6
MORRIS MN      CLOUDY     3  -2  78 W8        30.56R WCI -10
STAPLES        CLOUDY     7   3  85 NW9       30.51R WCI  -7
$$
  *****  WEATHER ELSEWHERE ACROSS MINNESOTA  *****

CITY           SKY/WX    TMP DP  RH WIND       PRES   REMARKS
DULUTH         MOCLDY     9   3  77 NW10      30.45R WCI  -5
INTRNTL FALLS  CLOUDY     5  -1  76 W10       30.47S HAZE    WCI -10
ELY            FLURRIES   9   3  78 W7        30.42R WCI  -3
CLOQUET        CLOUDY     9   3  78 NW6       30.47S WCI  -1
WHEATON        PTCLDY     1  -4  78 W8        30.60S WCI -12
BRAINERD       CLOUDY    10   5  80 N6        30.50S WCI   0
HIBBING        MIX PCPN   5   0  79 NW12      30.47R WCI -11
ALEXANDRIA     CLOUDY     5   2  87 W7        30.52R WCI  -7
SAINT CLOUD    MOCLDY     6   3  87 NW6       30.54S WCI  -4
MINNEAPOLIS    FLURRIES  14   9  80 SW8       30.56R WCI   3
$$

  *****  WEATHER ACROSS SOUTH DAKOTA  *****

CITY           SKY/WX    TMP DP  RH WIND       PRES   REMARKS
SIOUX FALLS    CLOUDY     3  -1  83 CALM      30.57R
BROOKINGS      CLOUDY    -1  -5  82 NW5       30.53S WCI -11
WATERTOWN      CLOUDY    -2  -7  79 NW6       30.51R WCI -14
HURON          CLOUDY     1  -4  79 N5        30.59S WCI  -9
SISSETON         N/A      0  -6  76 NW8       30.56S WCI -14
ABERDEEN       CLOUDY    -2  -9  72 NW5       30.59R WCI -12
MITCHELL       CLOUDY     2  -3  80 CALM      30.60S
PIERRE         CLOUDY     2  -3  80 E8        30.51R WCI -12
MOBRIDGE       CLOUDY    -3  -9  75 N6        30.52R WCI -15
RAPID CITY     CLOUDY    -1  -6  79 N12       30.33R WCI -18
$$

  *****  SOME WEATHER IN NEARBY STATES *****

CITY           SKY/WX    TMP DP  RH WIND       PRES   REMARKS
GLASGOW MT     CLOUDY    -5  -9  83 SE8       30.51R WCI -20
GREAT FALLS MT LGT SNOW  -3  -8  79 N6        30.28S WCI -15
CHEYENNE WY    CLOUDY    36  23  59 W21       30.00R
SCOTTSBLUFF NE CLOUDY    16   8  71 E8        30.14R WCI   5
OMAHA NE       PTSUNNY   11   4  73 CALM      30.64R
DES MOINES IA  PTSUNNY   13   7  77 NW7       30.63R WCI   3
DAVENPORT IA   MOSUNNY   17  12  80 NW10      30.58R WCI   5
CHICAGO IL     FLURRIES  23  17  78 W12       30.51R WCI  12
EAU CLAIRE WI  CLOUDY    14  11  87 W3        30.53R
LA CROSSE WI   PTSUNNY   20  11  68 N10       30.57R WCI   9
$$

  *****  SOME NATIONAL WEATHER *****

CITY           SKY/WX    TMP DP  RH WIND       PRES   REMARKS
LA GUARDIA NY  MOSUNNY   37  20  50 NW17G29   30.11R
RALEIGH NC     SUNNY     35  15  44 N9G17     30.41R
ATLANTA GA     SUNNY     32  17  54 NW14      30.48R WCI  22
NEW ORLEANS LA MOSUNNY   40  26  57 NE17G23   30.55R
OKLAHOMA CITY  CLOUDY    24  13  62 SE12      30.60S WCI  13
ALBUQUERQUE NM CLOUDY    25  20  81 SE5       30.38S WCI  19
SALT LAKE CITY CLOUDY    37  31  78 SE8       30.19S
LOS ANGELES CA MOCLDY    53  49  86 CALM      30.25S
BOISE ID       CLOUDY    26  23  88 CALM      30.15R
SEATTLE WA     CLOUDY    33  30  88 E15       29.96R WCI  23
$$

*** WEATHER ACROSS MANITOBA...SASKATCHEWAN AND ONTARIO ***
                ***ONTARIO***

CITY           SKY/WX    TMP DP  RH WIND       PRES   REMARKS
GERALDTON      FLURRIES   9   3  78 NW5       30.34R WCI   0
THUNDER BAY    MOCLDY    14   5  67 N5        30.44R WCI   6
SIOUX LOOKOUT  FLURRIES   7   1  78 N6        30.39R WCI  -3
TORONTO        MOSUNNY   23  16  74 N3        30.24R
BIG TROUT LK   FLURRIES  -2  -6  84 NW9       30.40S WCI -18
PICKLE LAKE    FLURRIES   1  -2  85 NW5       30.36S WCI  -8
DRYDEN         FLURRIES   3   0  85 W6        30.40R WCI  -8
KENORA         FLURRIES   3  -2  78 W6        30.44S WCI  -8
$$
                *** MANITOBA***

CITY           SKY/WX    TMP DP  RH WIND       PRES   REMARKS
BRANDON        FLURRIES -13 -18  77 NW9       30.55R WCI -31
DAUPHIN        FLURRIES  -6 -11  77 NW9G17    30.60R WCI -22
ISLAND LAKE    FLURRIES -11 -17  77 NW7       30.51S WCI -26
PILOT MOUND      N/A    -17 -20  83 NW2         N/A
THE PAS        FLURRIES  -8 -15  71 NW14      30.62R WCI -28
THOMPSON       FLURRIES -18 -24  76 NW5       30.59S WCI -31
WINNIPEG       FLURRIES   1  -6  71 W16       30.57S WCI -18
LYNN LAKE      CLOUDY   -15 -18  84 NW5       30.59S WCI -27
CHURCHILL      FLURRIES  -4  -9  77 NW22G30   30.51F WCI -28
GILLAM         FLURRIES -11 -17  77 NW10      30.54S WCI -30
$$
                ***SASKATCHEWAN***

CITY           SKY/WX    TMP DP  RH WIND       PRES   REMARKS
ESTEVAN        PTCLDY   -24 -29  76 W9        30.55R WCI -45
KINDERSLEY     CLOUDY   -11 -15  84 E5        30.51S WCI -23
LLOYDMINSTER   CRYSTALS -17 -22  76 CALM      30.53F
PRINCE ALBERT  CRYSTALS -18 -24  76 W6        30.64S WCI -33
REGINA         CLEAR    -18 -24  76 NW6       30.56S WCI -33
YORKTON        CLEAR    -17 -22  76 W7        30.56R WCI -33
N. BATTLEFORD  CLEAR    -22 -27  76 NE7       30.62S WCI -39
LA RONGE       CLEAR    -24 -29  76 W5        30.65F WCI -38
SASKATOON      PTCLDY   -17 -22  76 NW5       30.62F WCI -29
SWIFT CURRENT  CLOUDY    -8 -11  84 N5        30.44S WCI -19
$$
NOTE: THESE ARE AUTOMATED STATIONS WITH LIMITED QUALITY CONTROL
      "FAIR" INDICATES FEW OR NO CLOUDS BELOW 12,000 FEET WITH NO
      SIGNIFICANT WEATHER AND/OR OBSTRUCTIONS TO VISIBILITY.
      SKY/WX - SKY CONDITION AND SIGNIFICANT WEATHER.
      TMP - AIR TEMPERATURE.    DP   - DEWPOINT TEMPERATURE.
      RH  - RELATIVE HUMIDITY.  PRES - PRESSURE.
      HX  - HEAT INDEX.         WCI  - WIND CHILL INDEX.
$



USA.gov is the U.S. government's official web portal to all federal, state and local government web resources and services.